Location: Châteauvieux
(47.2310°N, 1.3828°E)
Time: 23:39:36
(UTC+00:00)

Cosmos 1503 Rocket - Pass Details

Date: 15 May 2026
Orbit: 749 x 785 km, 74.0° (Epoch: 11 June)

Event Time Altitude Azimuth Distance (km) Brightness Sun altitude
Rises 21:43:15 0° 336° (NNW) 3,225 8.9 -17.8°
Reaches altitude 10° 21:45:38 10° 336° (NNW) 2,291 7.7 -18.0°
Maximum altitude 21:50:50 80° 250° (WSW) 768 3.9 -18.4°
Enters shadow 21:53:05 34° 168° (SSE) 1,210 4.5 -18.6°
